EST,Max TemperatureF,Mean TemperatureF,Min TemperatureF,Max Dew PointF,MeanDew PointF,Min DewpointF,Max Humidity, Mean Humidity, Min Humidity, Max Sea Level PressureIn, Mean Sea Level PressureIn, Min Sea Level PressureIn, Max VisibilityMiles, Mean VisibilityMiles, Min VisibilityMiles, Max Wind SpeedMPH, Mean Wind SpeedMPH, Max Gust SpeedMPH,PrecipitationIn, CloudCover, Events, WindDirDegrees
2012-12-1,64,47,30,48,40,30,100,84,49,30.42,30.37,30.34,10,9,2,5,0,,0.00,0,,162
2012-12-2,66,50,35,52,44,36,100,83,56,30.41,30.33,30.24,10,9,2,8,2,,0.00,1,,189
2012-12-3,71,60,48,57,54,48,100,86,57,30.28,30.25,30.21,10,9,1,6,2,,0.00,3,,217
2012-12-4,75,60,44,57,52,45,100,78,44,30.31,30.23,30.16,10,7,1,12,3,18,0.00,1,,208
2012-12-5,62,52,41,61,54,41,100,95,82,30.22,30.15,30.09,10,7,0,14,5,18,0.00,6,,238
2012-12-6,48,40,33,36,34,30,100,77,50,30.37,30.30,30.25,10,10,7,10,4,,0.00,0,,58
2012-12-7,62,48,33,61,48,34,100,91,68,30.25,30.12,29.98,10,10,2,5,0,,0.00,7,,155
2012-12-8,64,58,51,61,55,52,100,95,73,30.05,29.99,29.95,10,5,0,8,3,,0.00,4,,220
2012-12-9,69,58,48,63,57,48,100,93,73,30.15,30.08,30.01,10,7,0,9,3,,0.00,4,,181
2012-12-10,73,66,59,66,62,57,100,88,68,30.00,29.80,29.68,10,9,5,13,6,21,0.00,4,,198
2012-12-11,68,58,48,61,48,37,100,74,58,30.19,29.95,29.70,10,9,3,13,6,17,0.00,7,,37
2012-12-12,48,46,44,39,33,28,71,60,50,30.35,30.29,30.18,10,10,10,14,8,20,0.00,8,,34
2012-12-13,53,42,30,41,37,30,100,80,58,30.36,30.34,30.29,10,10,5,13,7,20,0.00,4,,16
2012-12-14,57,42,28,39,31,27,100,82,31,30.37,30.31,30.25,10,10,7,4,0,,0.00,0,,279
2012-12-15,55,42,28,46,36,28,100,86,47,30.30,30.22,30.13,10,10,10,6,0,,0.00,1,,132
2012-12-16,57,52,46,57,53,45,100,99,93,30.12,30.00,29.89,10,5,1,9,2,,0.00,8,,197
2012-12-17,64,60,57,61,58,55,100,94,73,29.89,29.78,29.61,10,8,3,17,4,18,0.00,5,,206
2012-12-18,64,54,42,57,49,36,100,75,48,29.87,29.70,29.62,10,10,4,15,8,23,0.00,3,,251
2012-12-19,62,50,37,43,37,34,100,70,34,30.18,29.99,29.86,10,10,10,13,4,22,0.00,0,,252
2012-12-20,62,48,33,61,42,34,100,85,54,30.21,30.01,29.48,10,9,3,25,3,33,0.00,2,,123
2012-12-21,64,50,37,64,33,21,100,58,42,29.72,29.54,29.37,10,9,2,25,17,39,0.00,6,,257
2012-12-22,50,41,30,27,22,19,80,48,30,30.06,29.90,29.72,10,10,10,23,11,32,0.00,0,,273
2012-12-23,55,40,24,28,24,19,100,57,26,30.15,30.06,29.99,10,10,7,10,3,,0.00,0,,213
2012-12-24,55,48,42,45,37,27,81,62,46,30.06,29.98,29.91,10,10,7,7,2,,0.00,6,,191
2012-12-25,57,50,44,46,42,37,100,78,54,30.20,30.07,29.91,10,10,10,9,3,,0.00,5,,54
2012-12-26,60,51,42,61,49,39,100,96,81,30.17,29.73,29.39,10,7,2,23,10,39,0.00,7,,72
2012-12-27,51,43,35,41,33,28,100,68,43,30.07,29.81,29.54,10,10,10,21,11,30,0.00,1,,275
2012-12-28,44,36,28,36,30,27,100,79,53,30.19,30.11,30.05,10,10,10,7,1,,0.00,0,,335
2012-12-29,48,42,37,45,39,30,100,88,66,30.05,29.77,29.60,10,8,1,16,4,21,0.00,5,,282
2012-12-30,46,38,30,30,25,19,80,59,34,30.37,30.18,29.86,10,10,10,18,9,30,0.00,0,,290
2012-12-31,48,36,24,32,26,21,100,68,46,30.37,30.26,30.10,10,10,10,10,2,,0.00,1,,213